FENGYUN 1C DEB, 30721

Orbit data source: Space-Track

FENGYUN 1C DEB, 30721 is space debris in SSO originally from a launch on Mon, 10 May 1999 UTC launched from the Taiyaun Space Center, China (TSC). Fengyun 1C debris stems from the Chinese weather satellite Fengyun-1C, which was intentionally destroyed by a Chinese anti-satellite missile in 2007. This event dramatically increased the amount of space debris, with thousands of trackable fragments posing hazards to satellites and human spaceflight. The Fengyun 1C debris cloud has become a focal point in discussions about space sustainability and the need for international regulations to prevent the creation of new debris.

Loading next visibility...
Identifier
30721, 1999-025ASF
Orbit
SSO
Country
Flag of CNCN / PRC
Related business
Manufacturer
Unknown
Mission
Spacecraft
Bus & Motor
Unknown
Mass
Unknown
Launch date (UTC)
1999-05-10 (27 years ago)
Launch vehicle
Unknown
Launch site
Taiyaun Space Center, China (TSC)
Object type
Payload
Rocket body
Debris
Shape & HBR
Unknown shape, 0.1 m
Radar Cross Section
Small (<0.1 m²)

Expand to show TLE details & history
Last TLE update: 1 day ago

TLE from 1 day ago
0 FENGYUN 1C DEB
1 30721U 99025ASF 26105.35650231  .00009214  00000-0  12581-2 0  9992
2 30721  98.7139 251.0823 0023052 309.4497  73.0144 14.78680419996653
Epoch: 2026-04-15T08:33Z
TLE epoch observation values (Epoch: 2026-04-15T08:33:21.799Z)
Latitude
22.45757°
Longitude
-84.39069°
Altitude
631.602 km
Speed
7.547 km/s
True Right ascension
16h 29m 52s
True Declination
22° 20' 03"
Sunlit
Object was in full shadow at epoch
Visualization orbit readout
Latitude
Unknown
Longitude
Unknown
Altitude
Unknown
Speed
Unknown
Apparent Right ascension
Unknown
Apparent Declination
Unknown
Sunlit
N/A
Visualization observer readout
Local Sidereal Time
02:29:38
Azimuth
Unknown
Elevation
Unknown
Doppler factor
Unknown
Orbital elements
Apogee altitude
646.73 km
Perigee altitude
614.417 km
Semi-major axis
7,008.71 km
Eccentricity
0.00231
Inclination
98.7139°
RAAN
251.0823°
Arg. of periapsis
309.4497°
True anomaly
73.26725°
Mean anomaly
73.0144°
Eccentric anomaly
73.1408°
Mean motion
3.69901 °/min
Orbital period
97.32 mins
BSTAR
0.0012581
Loading maneuver chart data...
Computing Atmospheric mass density...
Loading historical data...
Loading historical data...
Loading historical data...
Loading historical data...
Loading historical data...
Loading historical data...
Loading historical data...

Documentation

Showing up to 5 results
|